Other Public Products
Issued by NWS Charleston, SC

Current Version | Previous Version | Graphics & Text | Print | Product List | Glossary On
Versions: 1 2 3 4 5 6 7 8 9 10 11 12 13 14 15 16 17 18 19 20 21 22 23 24 25 26 27 28 29 30 31 32 33 34 35 36 37 38 39 40 41 42 43 44 45 46 47 48 49 50
521
FPUS82 KCHS 202012
OPUCHS

TEST...KCHS/KSAV Gateway Observations...TEST
National Weather Service Charleston SC
400 PM EDT SUN MAY 20 2018

NOTE: "fair" indicates few or no clouds below 12,000 feet with no
significant weather and/or obstructions to visibility.

SCZ050-WAZ558-NCZ071-TXZ119-213-PAZ071-DCZ001-FLZ074-172-MI076-
NYZ176-178-MAZ016-IL014-TNZ027-NJZ106-GAZ044-MD014-202100-

...Gateway Observations for Charleston International...

CITY           SKY/WX    TMP DP  RH WIND       PRES   REMARKS
Chas Airport   LGT RAIN  79  71  76 S13       30.14F
Seattle        CLOUDY    65  53  65 S7        30.07S
Charlotte      PTSUNNY   83  70  64 S6        30.11F
Dallas DFW     CLOUDY    76  67  73 S13       29.99R
Dallas Love    CLOUDY    75  67  76 S14       29.98F
Philladelphia  PTSUNNY   82  64  54 W13G22    29.97F
Wash National  PTSUNNY   87  64  46 W9        30.00F
Baltimore      PTSUNNY   86  63  45 W13G21    29.98F
Miami          CLOUDY    80  75  84 E14       30.04F
Detroit        CLOUDY    66  55  67 N7        30.18R
Newark         PTSUNNY   84  63  49 W18G28    29.92F
Laguardia      PTSUNNY   83  62  49 W14       29.91F
J F K          PTSUNNY   83  65  54 W15G24    29.93S
Boston Logan   LGT RAIN  75  67  76 W18G29    29.84R
Ft. Lauderdale CLOUDY    80  75  84 E15       30.04F
Chicago O`Hare CLOUDY    50  43  77 NE14      30.21R
Chicago Midway CLOUDY    51  46  83 NE13      30.22R
Houston Bush   PTSUNNY   78  75  90 E17       29.96F
Houston Hobby  PTSUNNY   87  71  58 SE12G21   29.96S HX  93
Nashville      PTSUNNY   91  66  43 E6        30.07F HX  93
Atlanta        PTSUNNY   85  69  58 SE8       30.09F THUNDER

$$

GAZ044-118-TXZ119-213-NCZ071-DCZ001-MDZ014-506-PAZ021-071-NJZ106-
NYZ176-178-MAZ106-OHZ011-021-055-MIZ076-KYZ091-ILZ014-INZ047-
MNZ060-ONZ431-202100-

...Gateway Observations for Savannah International...

CITY           SKY/WX    TMP DP  RH WIND       PRES   REMARKS
Savannah Arpt  LGT RAIN  77  71  82 SW7       30.15F
Atlanta        PTSUNNY   85  69  58 SE8       30.09F THUNDER
Charlotte      PTSUNNY   83  70  64 S6        30.11F
Dallas DFW     CLOUDY    76  67  73 S13       29.99R
Houston Bush   PTSUNNY   78  75  90 E17       29.96F
Wash National  PTSUNNY   87  64  46 W9        30.00F
Wash Dulles    PTSUNNY   86  65  49 W12       30.01F
Baltimore      PTSUNNY   86  63  45 W13G21    29.98F
Philadelphia   PTSUNNY   82  64  54 W13G22    29.97F
Newark         PTSUNNY   84  63  49 W18G28    29.92F
Laguardia      PTSUNNY   83  62  49 W14       29.91F
J F K          PTSUNNY   83  65  54 W15G24    29.93S
Boston         LGT RAIN  75  67  76 W18G29    29.84R
Pittsburg      PTSUNNY   73  60  63 NW13G20   30.13R
Akron          CLOUDY    69  57  65 VRB3      30.16R
Cleveland      PTSUNNY   62  54  74 NE6       30.20R
Cincinnati     FAIR      85  63  47 VRB7      30.09F
Columbus       FAIR      77  61  57 MISG      30.11S
Detroit        CLOUDY    66  55  67 N7        30.18R
Chicago O`Hare CLOUDY    50  43  77 NE14      30.21R
Minneapolis    FAIR      70  34  26 E10G20    30.18F
Indianapolis   PTSUNNY   86  63  45 W8        30.08R
Toronto Canada PTSUNNY   66  48  52 N6        30.09S

$$




USA.gov is the U.S. government's official web portal to all federal, state and local government web resources and services.